Location: Newark
(40.3500°N, 15.2333°E)
Time: 07:26:01
(UTC+00:00)

Vanguard 1 - Pass Details

Date: 26 January 2020
Orbit: 650 x 3833 km, 34.2° (Epoch: 20 February)

Event Time Altitude Azimuth Distance (km) Brightness Sun altitude
Rises 20:13:31 0° 267° (W) 3,303 13.4 -46.2°
Reaches altitude 10° 20:15:58 10° 253° (WSW) 2,586 12.6 -46.7°
Enters shadow 20:15:59 10° 253° (WSW) 2,580 12.6 -46.7°
Maximum altitude 20:21:01 27° 197° (SSW) 2,129 - -47.6°
Drops below altitude 10° 20:28:39 10° 145° (SE) 4,036 - -49.0°
Sets 20:33:39 0° 136° (SE) 5,622 - -49.9°
